Regional Weather Roundup
Issued by NWS Bismarck, ND

Home | Current Version | Previous Version | Text Only | Print | Product List | Glossary On
Versions: 1 2 3 4 5 6 7 8 9 10 11 12 13 14 15 16 17 18 19 20 21 22 23 24 25 26 27 28 29 30 31 32 33 34 35 36 37 38 39 40 41 42 43 44 45 46 47 48 49 50
000
ASUS43 KBIS 010010
RWRBIS

NWR BROADCAST TEXT
NATIONAL WEATHER SERVICE BISMARCK ND
700 PM CDT FRI OCT 31 2014

NOTE: "FAIR" INDICATES FEW OR NO CLOUDS BELOW 12,000 FEET WITH NO
SIGNIFICANT WEATHER AND/OR OBSTRUCTIONS TO VISIBILITY.


CITY           SKY/WX    TMP DP  RH WIND       PRES   REMARKS
WILLISTON      CLOUDY    43  20  39 S14G22    29.98S
MINOT          PTCLDY    37  11  34 SE17G30   30.11F
MINOT AFB      PTCLDY    36  15  41 SE21      30.10F
BISMARCK       PTCLDY    35  15  44 SE12      30.20F
DICKINSON      PTCLDY    39  16  39 S25G37    30.01F
GARRISON         N/A     37  15  40 SE18G32   30.12F
HETTINGER ARPT PTCLDY    39  15  37 SE15G30   30.06S
JAMESTOWN      CLEAR     32  18  56 SE12      30.32F
BEACH            N/A     43  28  56 SE24G35   29.94F
CARRINGTON     FAIR      32  16  51 SE15G21   30.29F
CROSBY         FAIR      39  21  48 SE15G23   29.99F
HARVEY         FAIR      32  16  51 SE16G22   30.22F
HAZEN          FAIR      36  14  41 SE14G20   30.13F
LINTON         FAIR      34  16  47 SE20G26   30.21F
MANDAN         FAIR      36  10  35 SE20G26   30.18F
OAKES            N/A     28  19  69 SE10      30.37S WCI  19
RUGBY          FAIR      34  18  51 SE16G23   30.20F
STANLEY        FAIR      34  18  51 SE20G28   30.03F
TIOGA          FAIR      37  19  48 SE15G25   30.03F
$$

CITY           SKY/WX    TMP DP  RH WIND       PRES   REMARKS
GRAND FORKS    PTCLDY    32  19  58 SE9       30.39F
GRAND FORKS AF CLEAR     30  19  64 SE10      30.38F
DEVILS LAKE    CLEAR     34  16  47 S18       30.27F
FARGO          CLEAR     36  19  50 SE12      30.42F
CANDO          FAIR      32  18  55 SE18G24   30.25F
CAVALIER       FAIR      36  19  51 S12G17    30.34F
GRAFTON        FAIR      32  19  59 S10       30.38F
GWINNER        CLEAR     32  23  69 SE9       30.40F
LANGDON        FAIR      32  16  51 S17       30.28F
ROLLA          FAIR      32  14  47 S15G22    30.22F
WALHALLA         N/A     36  18  48 SE14      30.33F
$$

CITY           SKY/WX    TMP DP  RH WIND       PRES   REMARKS
ABERDEEN       PTCLDY    28  16  60 S8        30.38F WCI  20
MOBRIDGE       CLEAR     39  12  33 SE24      30.21F
BUFFALO          N/A     45  27  49 SE23G32   29.90F
RAPID CITY     PTCLDY    47  29  49 S20G28    30.05S
GLASGOW        PTCLDY    48  33  56 E15       29.79F
SIDNEY         CLOUDY    46  27  46 SE16G22   29.95F
WOLF POINT     MOCLDY    49  33  54 SE8       29.87S
GLENDIVE       MOCLDY    46  28  49 SE16G22   29.91S
MILES CITY     MOCLDY    53  33  46 SE15      29.83F
BAKER          MOCLDY    46  30  53 SE25G35   29.92F
$$

CITY           SKY/WX    TMP DP  RH WIND       PRES   REMARKS
BILLINGS       PTCLDY    57  31  37 E5        29.80F
GREAT FALLS    PTCLDY    59  33  37 SW7       29.72R
REGINA         MOCLDY    41  28  60 SE21G29   29.88F
ESTEVAN        CLOUDY    37  19  48 SE15G25   30.01F
$$




USA.gov is the U.S. government's official web portal to all federal, state and local government web resources and services.